MST,Max TemperatureF,Mean TemperatureF,Min TemperatureF,Max Dew PointF,MeanDew PointF,Min DewpointF,Max Humidity, Mean Humidity, Min Humidity, Max Sea Level PressureIn, Mean Sea Level PressureIn, Min Sea Level PressureIn, Max VisibilityMiles, Mean VisibilityMiles, Min VisibilityMiles, Max Wind SpeedMPH, Mean Wind SpeedMPH, Max Gust SpeedMPH,PrecipitationIn, CloudCover, Events, WindDirDegrees
2012-11-1,53,46,38,42,40,38,96,80,63,30.06,29.93,29.84,10,10,8,16,3,25,0.05,6,Rain,250
2012-11-2,49,43,36,42,39,35,100,89,77,30.22,30.15,30.06,10,6,0,5,1,6,0.00,7,Fog,241
2012-11-3,48,41,34,42,37,33,100,86,71,30.25,30.19,30.14,10,10,4,6,2,7,0.01,7,Rain,272
2012-11-4,56,50,43,47,44,42,100,83,66,30.39,30.32,30.18,10,10,6,8,2,12,0.01,8,Rain,292
2012-11-5,67,55,43,46,43,39,93,67,40,30.32,30.26,30.21,10,10,10,20,6,24,0.00,5,,359
2012-11-6,60,47,33,42,38,34,100,75,49,30.27,30.15,29.94,10,8,1,6,1,7,0.00,0,,359
2012-11-7,50,40,30,46,34,25,96,71,45,30.09,29.97,29.85,10,10,8,31,8,38,0.02,7,Rain,315
2012-11-8,38,32,26,30,27,22,92,76,59,30.04,29.81,29.71,10,5,0,23,9,29,0.11,7,Fog-Snow,124
2012-11-9,33,28,22,28,22,12,92,75,58,29.98,29.83,29.73,10,9,1,18,8,23,T,8,Snow,100
2012-11-10,26,22,18,18,10,6,68,57,46,30.21,30.10,29.99,10,10,6,20,9,23,T,7,Snow,130
2012-11-11,31,26,20,20,18,15,84,69,53,30.43,30.32,30.08,10,10,5,22,3,18,T,8,Snow,8
2012-11-12,33,28,23,27,20,16,81,69,56,30.43,30.37,30.32,10,10,10,8,2,10,T,7,,132
2012-11-13,39,34,29,33,30,27,100,85,70,30.37,30.31,30.19,10,10,7,6,1,16,0.01,8,,294
2012-11-14,44,38,32,36,33,30,100,85,70,30.37,30.23,30.13,10,6,0,7,1,10,0.02,7,Fog-Rain,274
2012-11-15,46,37,28,31,29,27,100,77,53,30.39,30.28,30.10,10,7,0,8,2,18,0.00,4,Fog,70
2012-11-16,42,34,25,29,27,24,100,80,60,30.12,30.08,30.03,10,10,10,5,0,14,0.00,4,,345
2012-11-17,54,40,26,37,31,25,100,73,46,30.09,29.89,29.69,10,10,8,18,5,24,T,6,,140
2012-11-18,46,37,27,37,28,23,82,62,41,30.05,29.92,29.61,10,10,9,23,7,26,0.01,3,Rain,253
2012-11-19,56,42,27,37,28,23,85,60,35,30.07,29.98,29.88,10,10,10,28,9,31,T,6,Rain,157
2012-11-20,58,51,44,42,38,35,89,66,43,29.87,29.83,29.75,10,10,5,21,7,28,0.21,8,Rain,118
2012-11-21,47,39,31,41,35,26,92,81,70,30.15,29.87,29.72,10,8,2,22,8,28,0.57,7,Rain-Snow,150
2012-11-22,40,33,25,28,25,21,85,67,48,30.58,30.45,30.10,10,10,10,10,2,62,0.00,5,,62
2012-11-23,35,29,22,28,24,20,96,80,64,30.57,30.39,30.13,10,10,10,7,0,18,0.00,2,,330
2012-11-24,44,38,31,40,34,29,100,91,82,30.20,30.15,30.08,10,10,7,14,2,16,0.04,8,Rain,299
2012-11-25,41,34,27,32,24,20,92,68,44,30.38,30.22,30.06,10,10,10,17,6,21,T,7,,308
2012-11-26,34,27,19,23,19,16,88,70,51,30.43,30.37,30.29,10,10,10,7,2,8,0.00,0,,160
2012-11-27,33,26,18,21,19,15,91,71,51,30.41,30.34,30.28,10,10,10,5,0,5,0.00,2,,20
2012-11-28,33,26,19,26,23,17,92,79,66,30.28,30.12,29.98,10,10,9,6,1,15,0.00,2,,270
2012-11-29,42,36,30,33,30,26,92,81,70,30.04,29.95,29.84,10,8,6,9,1,10,0.01,5,Rain,300
2012-11-30,44,39,33,40,36,32,100,91,82,29.83,29.72,29.64,10,3,0,10,3,14,0.25,8,Fog-Rain,189